Tracking 31030 objects as of 16-Jul-2025
HD Live streaming from Space Station
objects crossing your sky now

CZ-6A DEB

Track CZ-6A DEB now!
10-day predictions


NORAD ID: 54573
Int'l Code: 2022-151LZ
Perigee: 662.5 km
Apogee: 799.8 km
Inclination: 98.6 °
Period: 99.3 minutes
Semi major axis: 7102 km
RCS: Unknown
Launch date: November 11, 2022
Source: People's Republic of China (PRC)
Launch site: Taiyaun Space Center, China (TSC)

Note: This is SATELLITE DEBRIS
Your satellite tracking list
Your tracking list is empty




NASA's NSSDC Master Catalog

Two Line Element Set (TLE):
1 54573U 22151LZ  25197.60624436  .00001913  00000-0  47287-3 0  9995
2 54573  98.6415 237.3901 0096653 244.5676 114.5491 14.50498628140329
Source of the keplerian elements: AFSPC